AMQ405 EPSC-EPKK

Flight info

Callsign AMQ405
Flight time 0h 49m
Altitude 35000
Route APNEZ DCT DENKO L619 ADVAB L623 UWLER
Aircraft A320/M-SDE3FGHIRWY/LB1

Departure

Time 2026-04-26 17:21
Airport Solidarity Szczecin–Goleniów Airport (EPSC)

Arrival

Time 2026-04-26 18:11
Airport Kraków John Paul II International Airport (EPKK)
Time Latitude Longitude Altitude Speed Heading
2026-04-26 17:07 53.59219 14.89529 144 ft 0 kts 311°
2026-04-26 17:17 53.59207 14.89517 142 ft 4 kts 180°
2026-04-26 17:17 53.59142 14.89515 142 ft 15 kts 218°
2026-04-26 17:17 53.59074 14.89481 142 ft 6 kts 120°
2026-04-26 17:18 53.59036 14.89554 141 ft 12 kts 130°
2026-04-26 17:18 53.58964 14.89695 141 ft 20 kts 132°
2026-04-26 17:18 53.58857 14.89904 140 ft 26 kts 131°
2026-04-26 17:18 53.58735 14.90140 141 ft 27 kts 130°
2026-04-26 17:19 53.58483 14.90636 144 ft 29 kts 131°
2026-04-26 17:19 53.58348 14.90892 147 ft 30 kts 131°
2026-04-26 17:19 53.58211 14.91155 152 ft 30 kts 131°
2026-04-26 17:20 53.58079 14.91414 158 ft 29 kts 130°
2026-04-26 17:20 53.57987 14.91591 162 ft 30 kts 131°
2026-04-26 17:20 53.57869 14.91780 163 ft 10 kts 177°
2026-04-26 17:20 53.57796 14.91699 163 ft 15 kts 221°
2026-04-26 17:21 53.57764 14.91588 164 ft 13 kts 288°
2026-04-26 17:21 53.57963 14.91210 160 ft 81 kts 311°
2026-04-26 17:21 53.58479 14.90213 159 ft 140 kts 310°
2026-04-26 17:21 53.59105 14.88988 832 ft 136 kts 311°
2026-04-26 17:22 53.59726 14.87779 1525 ft 139 kts 311°
2026-04-26 17:22 53.60411 14.86447 1938 ft 162 kts 311°
2026-04-26 17:22 53.61201 14.84911 2350 ft 185 kts 311°
2026-04-26 17:22 53.62104 14.83156 2815 ft 210 kts 311°
2026-04-26 17:23 53.63095 14.81231 3585 ft 222 kts 310°
2026-04-26 17:23 53.63924 14.79065 4526 ft 227 kts 286°
2026-04-26 17:23 53.63850 14.76376 5295 ft 246 kts 250°
2026-04-26 17:23 53.62802 14.73995 6101 ft 262 kts 226°
2026-04-26 17:24 53.61353 14.72045 7035 ft 269 kts 219°
2026-04-26 17:24 53.59651 14.70630 7888 ft 283 kts 195°
2026-04-26 17:24 53.57643 14.70567 8702 ft 297 kts 172°
2026-04-26 17:24 53.55680 14.71804 9533 ft 307 kts 147°
2026-04-26 17:25 53.54093 14.74249 10346 ft 314 kts 130°
2026-04-26 17:25 53.52591 14.77066 10764 ft 335 kts 130°
2026-04-26 17:25 53.50943 14.80040 11056 ft 360 kts 133°
2026-04-26 17:25 53.49130 14.83069 11577 ft 373 kts 135°
2026-04-26 17:26 53.47234 14.86108 12298 ft 380 kts 136°
2026-04-26 17:26 53.45296 14.89173 13054 ft 385 kts 136°
2026-04-26 17:26 53.43330 14.92286 13807 ft 391 kts 136°
2026-04-26 17:26 53.41343 14.95459 14490 ft 397 kts 135°
2026-04-26 17:27 53.39344 14.98683 15141 ft 401 kts 135°
2026-04-26 17:27 53.37324 15.01954 15798 ft 406 kts 135°
2026-04-26 17:27 53.35282 15.05264 16446 ft 411 kts 135°
2026-04-26 17:27 53.33217 15.08612 17089 ft 416 kts 136°
2026-04-26 17:28 53.31129 15.11995 17732 ft 420 kts 136°
2026-04-26 17:28 53.29016 15.15406 18376 ft 425 kts 136°
2026-04-26 17:28 53.26871 15.18855 18943 ft 429 kts 136°
2026-04-26 17:28 53.24710 15.22317 19549 ft 432 kts 136°
2026-04-26 17:29 53.22530 15.25804 20149 ft 435 kts 137°
2026-04-26 17:29 53.21073 15.28135 20544 ft 438 kts 137°
2026-04-26 17:29 53.18143 15.32818 21327 ft 442 kts 137°
2026-04-26 17:29 53.15911 15.36374 21904 ft 446 kts 137°
2026-04-26 17:30 53.13658 15.39950 22463 ft 449 kts 138°
2026-04-26 17:30 53.11384 15.43548 23010 ft 452 kts 138°
2026-04-26 17:30 53.09090 15.47178 23535 ft 457 kts 138°
2026-04-26 17:30 53.06781 15.50837 23996 ft 461 kts 138°
2026-04-26 17:31 53.04451 15.54530 24418 ft 464 kts 138°
2026-04-26 17:31 53.02104 15.58244 24834 ft 467 kts 138°
2026-04-26 17:31 52.99739 15.61983 25247 ft 470 kts 138°
2026-04-26 17:31 52.97365 15.65726 25644 ft 472 kts 138°
2026-04-26 17:32 52.94973 15.69488 26012 ft 475 kts 138°
2026-04-26 17:32 52.92568 15.73261 26422 ft 477 kts 139°
2026-04-26 17:32 52.90180 15.76999 26808 ft 480 kts 139°
2026-04-26 17:32 52.87749 15.80798 27186 ft 482 kts 139°
2026-04-26 17:33 52.85300 15.84626 27569 ft 485 kts 138°
2026-04-26 17:33 52.82839 15.88468 27884 ft 489 kts 138°
2026-04-26 17:33 52.80357 15.92346 28220 ft 492 kts 138°
2026-04-26 17:34 52.75562 16.00500 28918 ft 497 kts 134°
2026-04-26 17:34 52.73241 16.04749 29234 ft 500 kts 133°
2026-04-26 17:34 52.70921 16.09052 29552 ft 502 kts 133°
2026-04-26 17:34 52.68589 16.13353 29857 ft 504 kts 133°
2026-04-26 17:35 52.66225 16.17639 30140 ft 507 kts 134°
2026-04-26 17:35 52.63831 16.21909 30401 ft 509 kts 134°
2026-04-26 17:35 52.61406 16.26183 30609 ft 511 kts 134°
2026-04-26 17:35 52.58968 16.30452 30844 ft 512 kts 134°
2026-04-26 17:36 52.56525 16.34720 31107 ft 512 kts 134°
2026-04-26 17:36 52.54088 16.38988 31418 ft 511 kts 134°
2026-04-26 17:36 52.51662 16.43250 31734 ft 510 kts 134°
2026-04-26 17:36 52.49242 16.47505 32047 ft 510 kts 134°
2026-04-26 17:37 52.46824 16.51748 32357 ft 509 kts 135°
2026-04-26 17:37 52.44403 16.55985 32666 ft 508 kts 135°
2026-04-26 17:37 52.41985 16.60206 32980 ft 508 kts 135°
2026-04-26 17:38 52.37138 16.68640 33540 ft 509 kts 135°
2026-04-26 17:38 52.34712 16.72850 33845 ft 508 kts 135°
2026-04-26 17:38 52.32288 16.77050 34173 ft 508 kts 135°
2026-04-26 17:38 52.29863 16.81238 34447 ft 507 kts 135°
2026-04-26 17:39 52.27434 16.85430 34723 ft 507 kts 135°
2026-04-26 17:39 52.25015 16.89600 34994 ft 506 kts 135°
2026-04-26 17:39 52.22588 16.93775 35223 ft 506 kts 135°
2026-04-26 17:39 52.20170 16.97927 35282 ft 504 kts 135°
2026-04-26 17:40 52.16968 17.03417 35280 ft 505 kts 135°
2026-04-26 17:40 52.10481 17.14509 35280 ft 505 kts 135°
2026-04-26 17:41 52.05661 17.22716 35281 ft 505 kts 135°
2026-04-26 17:41 52.00792 17.30969 35282 ft 505 kts 135°
2026-04-26 17:42 51.95926 17.39204 35278 ft 505 kts 135°
2026-04-26 17:42 51.91050 17.47419 35260 ft 506 kts 136°
2026-04-26 17:43 51.86165 17.55619 35264 ft 506 kts 136°
2026-04-26 17:43 51.81270 17.63805 35266 ft 506 kts 136°
2026-04-26 17:44 51.76363 17.71978 35282 ft 506 kts 136°
2026-04-26 17:44 51.71455 17.80150 35275 ft 507 kts 136°
2026-04-26 17:45 51.66572 17.88262 35260 ft 508 kts 136°
2026-04-26 17:45 51.61644 17.96417 35225 ft 508 kts 136°
2026-04-26 17:46 51.56702 18.04543 35254 ft 508 kts 136°
2026-04-26 17:46 51.51755 18.12648 35274 ft 508 kts 136°
2026-04-26 17:47 51.48438 18.18078 35259 ft 509 kts 136°
2026-04-26 17:47 51.41835 18.28843 35254 ft 509 kts 136°
2026-04-26 17:48 51.36890 18.36875 35250 ft 509 kts 136°
2026-04-26 17:48 51.31884 18.44987 35278 ft 509 kts 136°
2026-04-26 17:49 51.26895 18.53045 35227 ft 510 kts 136°
2026-04-26 17:49 51.21927 18.61035 35240 ft 510 kts 137°
2026-04-26 17:50 51.16919 18.69058 35245 ft 510 kts 137°
2026-04-26 17:50 51.14434 18.73038 35038 ft 502 kts 137°
2026-04-26 17:50 51.12814 18.75633 34845 ft 495 kts 137°
2026-04-26 17:51 51.10399 18.79495 34429 ft 489 kts 137°
2026-04-26 17:51 51.08006 18.83310 33830 ft 482 kts 137°
2026-04-26 17:51 51.05647 18.87062 32888 ft 477 kts 137°
2026-04-26 17:51 51.03302 18.90784 31561 ft 480 kts 137°
2026-04-26 17:52 51.00908 18.94571 30074 ft 489 kts 136°
2026-04-26 17:52 50.98502 18.98373 28833 ft 486 kts 136°
2026-04-26 17:52 50.96119 19.02138 27757 ft 479 kts 136°
2026-04-26 17:52 50.93768 19.05850 26812 ft 477 kts 136°
2026-04-26 17:53 50.91435 19.09530 26312 ft 471 kts 136°
2026-04-26 17:53 50.89119 19.13183 25500 ft 473 kts 136°
2026-04-26 17:53 50.86774 19.16871 24673 ft 477 kts 135°
2026-04-26 17:54 50.82131 19.24151 22859 ft 472 kts 135°
2026-04-26 17:54 50.79803 19.27798 22235 ft 469 kts 135°
2026-04-26 17:54 50.77491 19.31410 21615 ft 466 kts 135°
2026-04-26 17:54 50.75193 19.34990 21006 ft 463 kts 134°
2026-04-26 17:55 50.72903 19.38553 20419 ft 460 kts 134°
2026-04-26 17:55 50.70630 19.42086 19825 ft 458 kts 134°
2026-04-26 17:55 50.68374 19.45588 19415 ft 451 kts 134°
2026-04-26 17:55 50.65931 19.48650 19021 ft 447 kts 150°
2026-04-26 17:56 50.63087 19.50484 18459 ft 440 kts 170°
2026-04-26 17:56 50.57118 19.51843 17399 ft 429 kts 176°
2026-04-26 17:57 50.51248 19.52991 16388 ft 421 kts 176°
2026-04-26 17:57 50.48386 19.53845 15735 ft 416 kts 163°
2026-04-26 17:57 50.45805 19.55813 14833 ft 411 kts 144°
2026-04-26 17:57 50.43724 19.58797 13958 ft 402 kts 127°
2026-04-26 17:58 50.38711 19.68801 11174 ft 378 kts 125°
2026-04-26 17:59 50.35598 19.74956 10422 ft 335 kts 125°
2026-04-26 17:59 50.34202 19.77706 10283 ft 310 kts 125°
2026-04-26 17:59 50.32907 19.80262 10134 ft 290 kts 125°
2026-04-26 17:59 50.31643 19.82649 9706 ft 283 kts 132°
2026-04-26 18:00 50.30158 19.84632 9191 ft 279 kts 145°
2026-04-26 18:00 50.28486 19.86113 8661 ft 275 kts 154°
2026-04-26 18:00 50.26778 19.87443 8189 ft 272 kts 153°
2026-04-26 18:00 50.25109 19.88747 7727 ft 266 kts 153°
2026-04-26 18:01 50.23461 19.90032 7214 ft 262 kts 154°
2026-04-26 18:01 50.21879 19.91398 6764 ft 259 kts 142°
2026-04-26 18:01 50.20639 19.93375 6456 ft 253 kts 122°
2026-04-26 18:01 50.19888 19.95810 6112 ft 247 kts 102°
2026-04-26 18:02 50.19678 19.98426 5737 ft 241 kts 83°
2026-04-26 18:02 50.19824 20.00132 5482 ft 238 kts 73°
2026-04-26 18:02 50.20286 20.03510 4989 ft 237 kts 74°
2026-04-26 18:02 50.20621 20.06019 4848 ft 236 kts 74°
2026-04-26 18:03 50.20954 20.08530 4717 ft 236 kts 74°
2026-04-26 18:03 50.21288 20.11039 4583 ft 236 kts 74°
2026-04-26 18:03 50.21610 20.13548 4448 ft 236 kts 78°
2026-04-26 18:03 50.21422 20.16070 4315 ft 244 kts 111°
2026-04-26 18:04 50.20391 20.18162 4190 ft 248 kts 144°
2026-04-26 18:04 50.18837 20.19274 4068 ft 245 kts 166°
2026-04-26 18:04 50.17212 20.19452 3995 ft 227 kts 190°
2026-04-26 18:05 50.14400 20.17646 3995 ft 216 kts 224°
2026-04-26 18:05 50.13376 20.15974 3999 ft 211 kts 240°
2026-04-26 18:05 50.12699 20.13994 4004 ft 204 kts 256°
2026-04-26 18:05 50.12356 20.11868 4006 ft 202 kts 263°
2026-04-26 18:06 50.12066 20.09723 4004 ft 202 kts 263°
2026-04-26 18:06 50.11775 20.07581 4005 ft 201 kts 263°
2026-04-26 18:06 50.11484 20.05446 3997 ft 202 kts 263°
2026-04-26 18:06 50.11195 20.03338 3862 ft 194 kts 263°
2026-04-26 18:07 50.10919 20.01321 3618 ft 187 kts 263°
2026-04-26 18:07 50.10651 19.99363 3364 ft 183 kts 263°
2026-04-26 18:07 50.10387 19.97432 3117 ft 182 kts 263°
2026-04-26 18:07 50.10214 19.96170 2949 ft 178 kts 263°
2026-04-26 18:08 50.09874 19.93702 2629 ft 170 kts 263°
2026-04-26 18:08 50.09634 19.91964 2400 ft 158 kts 263°
2026-04-26 18:08 50.09411 19.90347 2176 ft 148 kts 263°
2026-04-26 18:08 50.09199 19.88806 1976 ft 143 kts 263°
2026-04-26 18:09 50.08994 19.87314 1780 ft 139 kts 264°
2026-04-26 18:09 50.08792 19.85851 1592 ft 139 kts 262°
2026-04-26 18:09 50.08592 19.84393 1403 ft 136 kts 263°
2026-04-26 18:09 50.08397 19.82945 1219 ft 137 kts 262°
2026-04-26 18:10 50.08198 19.81515 1030 ft 136 kts 261°
2026-04-26 18:10 50.07993 19.80072 840 ft 137 kts 261°
2026-04-26 18:10 50.07811 19.78744 802 ft 105 kts 257°
2026-04-26 18:10 50.07684 19.77838 797 ft 73 kts 258°
2026-04-26 18:11 50.07601 19.77246 802 ft 45 kts 257°
2026-04-26 18:11 50.07549 19.76875 802 ft 9 kts 255°
2026-04-26 18:11 50.07485 19.76844 802 ft 14 kts 172°
2026-04-26 18:11 50.07380 19.76875 800 ft 15 kts 166°
2026-04-26 18:12 50.07309 19.76955 800 ft 13 kts 94°
2026-04-26 18:12 50.07324 19.77088 800 ft 12 kts 78°
2026-04-26 18:12 50.07346 19.77247 800 ft 18 kts 77°
2026-04-26 18:12 50.07379 19.77473 800 ft 24 kts 77°
2026-04-26 18:13 50.07418 19.77753 800 ft 28 kts 78°
2026-04-26 18:13 50.07460 19.78056 800 ft 29 kts 78°
2026-04-26 18:13 50.07504 19.78371 800 ft 31 kts 78°
2026-04-26 18:13 50.07533 19.78593 800 ft 31 kts 78°
2026-04-26 18:14 50.07594 19.79021 800 ft 30 kts 78°
2026-04-26 18:14 50.07639 19.79340 800 ft 30 kts 78°
2026-04-26 18:14 50.07673 19.79597 800 ft 15 kts 78°
2026-04-26 18:14 50.07693 19.79738 800 ft 12 kts 77°
2026-04-26 18:15 50.07696 19.79858 800 ft 11 kts 128°
2026-04-26 18:15 50.07631 19.79893 800 ft 10 kts 167°
2026-04-26 18:15 50.07568 19.79915 800 ft 9 kts 168°
2026-04-26 18:15 50.07513 19.79942 800 ft 8 kts 131°
2026-04-26 18:16 50.07515 19.80016 800 ft 7 kts 78°
2026-04-26 18:16 50.07513 19.80131 800 ft 4 kts 148°
2026-04-26 18:16 50.07488 19.80138 800 ft 3 kts 168°
2026-04-26 18:17 50.07479 19.80141 800 ft 1 kts 168°
2026-04-26 18:17 50.07477 19.80142 800 ft 0 kts 168°